Home > Weather > Gary > Past weeks

Flag for USA Past Weather in Gary, Indiana, USA — Yesterday and Last 2 Weeks

Now
69 °F

Passing clouds.


Feels Like: 69 °F
Forecast: 68 / 77 °F
Wind: No wind

Location: Lansing Municipal Airport

Current Time: Jul 29, 2016 at 10:44:36 PM

Latest Report: Jul 29, 2016 at 10:15 PM


Visibility: 10 mi

Pressure: 29.94 "Hg

Humidity: 90%

Dew Point: 66 °F

Location of GaryLocation

Past Weather in Gary — Graph

°F

Gary Temperature Yesterday

Maximum temperature yesterday: 85 °F (at 1:55 PM)
Minimum temperature yesterday: 68 °F (at 5:15 AM)
Average temperature yesterday: 75 °F

High & Low Weather Summary for the Past Weeks

 TemperatureHumidityPressure
High90 °F (Jul 23, 3:55 PM)99% (Jul 19, 5:55 AM)30.26 "Hg (Jul 19, 5:55 AM)
Low60 °F (Jul 16, 6:15 AM)42% (Jul 16, 4:55 PM)29.86 "Hg (Jul 24, 6:15 PM)
Average76 °F73%30.03 "Hg
* Reported Jul 14 9:15 PM — Jul 29 9:35 PM, Gary, Weather by CustomWeather, © 2016

Note: Actual official high and low records may vary slightly from our data, if they occured in-between our weather recording intervals... More about our weather records

Advertising

Gary Weather History for the Previous 24 Hours

Scroll right to see more
 ConditionsComfort  
Time TempWeatherWind HumidityBarometerVisibility
9:35 PM
Fri, Jul 29
69 °FClear.No wind88%29.94 "Hg10 mi
9:15 PM70 °FPassing clouds.No wind86%29.94 "Hg10 mi
8:55 PM71 °FPassing clouds.3 mph84%29.94 "Hg10 mi
8:35 PM70 °FPassing clouds.No wind86%29.94 "Hg10 mi
8:15 PM70 °FClear.6 mph87%29.95 "Hg10 mi
7:55 PM70 °FSunny.8 mph88%29.94 "Hg10 mi
7:35 PM70 °FSunny.5 mph88%29.94 "Hg10 mi
7:15 PM71 °FSunny.3 mph86%29.93 "Hg10 mi
6:55 PM71 °FScattered clouds.5 mph85%29.92 "Hg10 mi
6:35 PM71 °FLight rain. Broken clouds.6 mph86%29.91 "Hg10 mi
6:15 PM71 °FLight rain. Broken clouds.No wind87%29.92 "Hg10 mi
5:55 PM70 °FLight rain. Broken clouds.7 mph88%29.92 "Hg10 mi
5:15 PM71 °FBroken clouds.7 mph86%29.94 "Hg10 mi
4:55 PM71 °FThunderstorms. Mostly cloudy.7 mph86%29.94 "Hg10 mi
4:15 PM72 °FThunderstorms. Mostly cloudy.3 mph84%29.91 "Hg10 mi
3:55 PM72 °FLight rain. Cloudy.No wind85%29.92 "Hg10 mi
3:15 PM74 °FLight rain. Mostly cloudy.No wind78%29.92 "Hg10 mi
2:55 PM74 °FThundershowers. Broken clouds.7 mph74%29.91 "Hg10 mi
2:35 PM74 °FBroken clouds.7 mph86%29.92 "Hg7 mi
2:15 PM72 °FDrizzle. Broken clouds.5 mph91%29.90 "Hg7 mi
1:55 PM70 °FLight rain. More clouds than sun.6 mph90%29.91 "Hg10 mi
1:35 PM67 °FStrong thunderstorms. Mostly cloudy.13 mph89%29.92 "Hg1 mi
1:15 PM72 °FStrong thunderstorms. Cloudy.13 mph87%29.93 "Hg5 mi
12:55 PM75 °FThunderstorms. Mostly cloudy.10 mph84%29.91 "Hg1 mi
12:35 PM80 °FThunderstorms. Cloudy.7 mph69%29.91 "Hg10 mi
12:15 PM81 °FThunderstorms. Broken clouds.6 mph68%29.91 "Hg10 mi
11:55 AM81 °FMostly cloudy.3 mph68%29.92 "Hg10 mi
11:35 AM81 °FBroken clouds.3 mph68%29.93 "Hg10 mi
11:15 AM81 °FPartly sunny.7 mph70%29.93 "Hg10 mi
10:55 AM82 °FOvercast.No wind63%29.94 "Hg10 mi
10:35 AM81 °FScattered clouds.No wind67%29.93 "Hg10 mi
9:55 AM79 °FSunny.No wind69%29.93 "Hg10 mi
9:35 AM79 °FSunny.No wind71%29.93 "Hg10 mi
9:15 AM78 °FSunny.No wind72%29.93 "Hg10 mi
8:55 AM77 °FSunny.No wind73%29.93 "Hg10 mi
8:35 AM76 °FSunny.3 mph76%29.92 "Hg10 mi
8:15 AM74 °FSunny.No wind80%29.92 "Hg10 mi
7:55 AM73 °FSunny.No wind82%29.93 "Hg10 mi
7:35 AM72 °FSunny.No wind85%29.93 "Hg10 mi
7:15 AM71 °FSunny.No wind88%29.92 "Hg7 mi
6:55 AM69 °FFog.No wind94%29.92 "Hg5 mi
6:35 AM67 °FFog.No wind97%29.92 "Hg5 mi
6:15 AM66 °FFog.No wind96%29.91 "Hg3 mi
5:55 AM67 °FFog.No wind94%29.91 "Hg5 mi
5:35 AM68 °FClear.No wind95%29.91 "Hg7 mi
5:15 AM67 °FFog.No wind94%29.91 "Hg5 mi
4:55 AM68 °FClear.No wind92%29.91 "Hg7 mi
4:35 AM69 °FClear.No wind89%29.91 "Hg10 mi
4:15 AM70 °FPassing clouds.No wind90%29.91 "Hg10 mi
3:55 AM70 °FPassing clouds.No wind88%29.91 "Hg10 mi
3:35 AM70 °FPartly cloudy.No wind88%29.91 "Hg10 mi
3:15 AM70 °FPassing clouds.3 mph88%29.91 "Hg10 mi
2:55 AM70 °FPassing clouds.No wind88%29.91 "Hg10 mi
2:35 AM70 °FClear.3 mph90%29.92 "Hg7 mi
2:15 AM71 °FFog.3 mph92%29.92 "Hg5 mi
1:55 AM71 °FFog.No wind93%29.91 "Hg5 mi
1:35 AM70 °FFog.No wind96%29.91 "Hg5 mi
1:15 AM69 °FFog.No wind93%29.91 "Hg1 mi
12:55 AM71 °FFog.No wind90%29.91 "Hg4 mi
12:35 AM71 °FClear.No wind91%29.91 "Hg7 mi
12:15 AM71 °FClear.3 mph91%29.91 "Hg7 mi
11:55 PM
Thu, Jul 28
72 °FFog.No wind93%29.92 "Hg3 mi
11:35 PM72 °FFog.No wind92%29.92 "Hg5 mi
11:15 PM72 °FFog.No wind93%29.92 "Hg5 mi
10:55 PM72 °FFog.No wind92%29.91 "Hg4 mi
10:35 PM73 °FClear.No wind91%29.92 "Hg7 mi
10:15 PM73 °FClear.No wind90%29.92 "Hg7 mi
Weather by CustomWeather, © 2016

See weather overviewHow to use our weather pages